Other Surface Observations
Issued by NWS

Home | Current Version | Previous Version | Text Only | Print | Product List | Glossary On
Versions: 1 2 3 4 5 6 7 8 9 10 11 12 13 14 15 16 17 18 19 20 21 22 23 24 25 26 27 28 29 30 31 32 33 34 35 36 37 38 39 40 41 42 43 44 45 46 47 48 49 50
000
SXUS52 KTAE 180818
OSOTAE
OSOTAE
North Florida/South Alabama/Southwest Georgia Weather Roundup
National Weather Service Tallahassee Florida
400 AM EDT SAT APR 18 2015

Note: "fair" indicates few or no clouds below 12,000 feet with no
significant weather and/or obstructions to visibility.

!FLZ017-115-028-034-025-180900
...North Florida...

CITY           SKY/WX    TMP DP  RH WIND       PRES   REMARKS
TALLAHASSEE    CLOUDY    73  72  96 W3        29.93S
APALACHICOLA   LGT RAIN  76  72  87 MISG      29.92F FOG
PERRY          MOCLDY    71  70  98 CALM      29.95S FOG
CROSS CITY       N/A    N/A N/A N/A MISG      29.94F
JACKSONVILLE   CLOUDY    67  64  90 CALM      29.96S
$$

!FLZ112-006-005-002-011-180900
...Florida Panhandle...

CITY           SKY/WX    TMP DP  RH WIND       PRES   REMARKS
MARIANNA       CLOUDY    67  67 100 S3        29.92S
BONIFAY        FOG       64  64 100 CALM      29.94R VSB 3/4
PANAMA CITY NW FOG       69  68  96 CALM      29.92S VSB 3/4
TYNDALL AFB    PTCLDY    68  68 100 CALM      29.92F FOG
TYND DRONE APT FAIR      69  70 100 CALM      29.92F FOG
DE FUNIAK SPR  CLOUDY    66  66 100 CALM      29.94S FOG
EGLIN AFB      MOCLDY    72  70  94 S2        29.91F FOG
DESTIN         CLOUDY    72  70  93 CALM      29.92S
HURLBURT       CLOUDY    72  64  78 SE1       29.91S
CRESTVIEW      FOG       65  65 100 CALM      29.93F VSB 1/4
PENSACOLA      MOCLDY    68  68 100 CALM      29.91F
$$

!ALZ063-066-180900
...South Alabama...

CITY           SKY/WX    TMP DP  RH WIND       PRES   REMARKS
DOTHAN         FOG       61  61 100 N5        29.97R VSB 1/2
OZARK CAIRNS   FOG       61  59  94 N6        29.94R VSB 1/2
FT RUCKER HELI CLOUDY    61  60  97 N3        29.93S FOG
RUCKER HELI 3  NOT AVBL
RUCKER HELI 2  CLOUDY    60  60 100 CALM      29.94R
FLORALA APT    FOG       61  61 100 N5        29.95S VSB 1/2
ANDALUSIA      LGT RAIN  64  61  88 CALM      29.94S VSB 1
TROY           CLOUDY    63  62  97 CALM      29.96S
EUFALA         CLOUDY    63  62  97 CALM      29.93S FOG
MOBILE         MOCLDY    67  67 100 NE6       29.91F
$$

!GAZ120>161-180900
...Southwest and South Central Georgia...

CITY           SKY/WX    TMP DP  RH WIND       PRES   REMARKS
THOMASVILLE    CLOUDY    68  68 100 CALM      29.94F FOG
BAINBRIDGE     FOG       68  68 100 CALM      29.93S VSB 1
MOODY AFB      MOCLDY    68  66  94 SE3       29.93
VALDOSTA       CLOUDY    69  68  96 SE5       29.93F
MOULTRIE       CLOUDY    68 N/A N/A CALM      29.94F FOG
BLAKELY        CLOUDY    66  66 100 CALM      29.94S
ALBANY         CLOUDY    69  67  93 CALM      29.94F FOG
TIFTON         CLOUDY    67  67  99 SE5       29.94F
FITZGERALD     CLOUDY    69  66  91 S3        29.96F
CORDELE        CLOUDY    69  68  95 S5        29.93F
AMERICUS       CLOUDY    64  64 100 CALM      29.95S FOG
HOMERVILLE     CLOUDY    70  68  94 SE5       29.96F
$$

!GMZ750-755-770-775-180900
...Coastal and Buoy Obs...

STATION/POSITION TIME  TEMP    WIND        PRES    VSBY  WAVE
                       AIR SEA DIR/SP/G                  HT/PER
                 (UTC) (F)     (DEG/KT/KT) (MB)    (MI)  (FT/S)
KEATON BEACH     0800   75     190/  9/ 10 1014.0F
CEDAR KEY        0800   76     220/  5/  8 1014.5F
C TOWER          0800   74     190/ 11/ 12 1013.2F
APALACHICOLA BUO 0750   76 76  190/  8/  8 1013.8F         2/ 5
PANAMA CITY BUOY 0750   76 77  210/  8/  8 1014.1F         3/ 5
MOBILE BUOY      0750   74 74  150/  6/  6 1012.9F         3/ 5
ORANGE BCH AL BU 0750   73 73  150/  6/  8 1012.2F         3/ 5
$$



USA.gov is the U.S. government's official web portal to all federal, state and local government web resources and services.